Location: Biltmore Gardens
(41.6070°N, 83.4666°W)
Time: 22:56:50
(UTC+00:00)

A-11 Canister half - Pass Details

Date: 26 April 2021
Orbit: 1526 x 1682 km, 47.3° (Epoch: 14 May)

Event Time Altitude Azimuth Distance (km) Brightness Sun altitude
Rises 01:41:40 0° 297° (WNW) 4,934 13.6 -13.6°
Reaches altitude 10° 01:44:54 10° 294° (WNW) 3,948 12.5 -14.1°
Maximum altitude 01:54:44 57° 220° (SW) 1,923 9.5 -15.6°
Enters shadow 02:02:16 19° 149° (SSE) 3,263 10.2 -16.8°
